This is the latest recevied weather packets stored in our database for station/object KK7KRZ. If no packets are shown the sender has not sent any weather packets the latest 10 day(s).
| Time | Temp. | Humidity | Pressure | Rain* | Wind** | Luminosity | Snow |
|---|---|---|---|---|---|---|---|
| 1777868565 | 23.33° C | 45% | 1006.9 hPa | 0 mm | - | 0 W/m² | - |
| 1777868261 | 23.33° C | 45% | 1006.6 hPa | 0 mm | - | 0 W/m² | - |
| 1777867958 | 23.33° C | 45% | 1006.7 hPa | 0 mm | - | 0 W/m² | - |
| 1777867654 | 23.89° C | 45% | 1006.7 hPa | 0 mm | - | 0 W/m² | - |
| 1777867352 | 23.89° C | 45% | 1006.7 hPa | 0 mm | - | 0 W/m² | - |
| 1777867047 | 24.44° C | 44% | 1006.4 hPa | 0 mm | - | 0 W/m² | - |
| 1777866745 | 25° C | 43% | 1006.5 hPa | 0 mm | - | 0 W/m² | - |
| 1777866442 | 25° C | 42% | 1006.5 hPa | 0 mm | - | 0 W/m² | - |
| 1777866139 | 25.56° C | 44% | 1006.5 hPa | 0 mm | - | 0 W/m² | - |
| 1777865837 | 25° C | 42% | 1006.5 hPa | 0 mm | - | 0 W/m² | - |
| 1777865534 | 25° C | 44% | 1006.4 hPa | 0 mm | - | 0 W/m² | - |
| 1777865232 | 25° C | 46% | 1006.7 hPa | 0 mm | - | 0 W/m² | - |
| 1777864928 | 25° C | 47% | 1006.5 hPa | 0 mm | - | 0 W/m² | - |
| 1777864625 | 25.56° C | 46% | 1006.2 hPa | 0 mm | - | 1 W/m² | - |
| 1777864322 | 26.11° C | 46% | 1006.3 hPa | 0 mm | - | 3 W/m² | - |
| 1777864018 | 26.67° C | 44% | 1006.3 hPa | 0 mm | - | 4 W/m² | - |
| 1777863715 | 26.67° C | 44% | 1006.1 hPa | 0 mm | - | 6 W/m² | - |
| 1777863411 | 26.67° C | 44% | 1006.3 hPa | 0 mm | - | 6 W/m² | - |
| 1777863108 | 26.67° C | 43% | 1006.4 hPa | 0 mm | - | 8 W/m² | - |
| 1777862806 | 26.67° C | 42% | 1006.2 hPa | 0 mm | - | 10 W/m² | - |
| 1777862502 | 26.67° C | 41% | 1006.4 hPa | 0 mm | - | 11 W/m² | - |
| 1777862199 | 27.22° C | 39% | 1006.3 hPa | 0 mm | - | 12 W/m² | - |
| 1777861895 | 27.78° C | 36% | 1006.3 hPa | 0 mm | - | 14 W/m² | - |
| 1777861591 | 28.33° C | 35% | 1006.3 hPa | 0 mm | - | 15 W/m² | - |
| 1777861287 | 28.89° C | 34% | 1006.2 hPa | 0 mm | - | 16 W/m² | - |
* Rain latest hour (hover to see other rain measurements)
** Current wind speed in m/s (hover to see current wind gust speed)